User: anonymous   Login
Location: Kalberh�ni
(46.4610°N, 7.2453°E)
Time: 09:28:14
(UTC+00:00)
Language:

H-2A R/B - Orbit

View from above orbital plane
View from above orbital plane
View from above satellite
View from above satellite

Ground track
Ground track

The orbit data is extracted from the following two-line orbital elements,

1 39771U 14029F   21263.94138081  .00000063  00000-0  11784-4 0  9995
2 39771  98.1590 149.4521 0016996 166.3392 193.8290 14.94004336399195
Epoch (UTC): 20 September 2021 22:35:35
Eccentricity: 0.0016996
inclination: 98.1590°
perigee height: 573 km
apogee height: 597 km
right ascension of ascending node: 149.4521°
argument of perigee: 166.3392°
revolutions per day: 14.94004336
mean anomaly at epoch: 193.8290°
orbit number at epoch: 39919

The dashed part of the orbit path shows where the satellite is in the earth's shadow,  

DLR